Year,Month,Day,Hour,Minute,Value (Times are PST for temperature in C)
2009,07,01,00,00,9.20
2009,07,01,00,01,9.20
2009,07,01,00,02,9.20
2009,07,01,00,03,9.10
2009,07,01,00,04,9.00
2009,07,01,00,05,9.00
2009,07,01,00,06,9.00
2009,07,01,00,07,8.90
2009,07,01,00,08,8.90
2009,07,01,00,09,8.90
2009,07,01,00,10,8.90
2009,07,01,00,11,8.90
2009,07,01,00,12,9.00
2009,07,01,00,13,9.00
2009,07,01,00,14,9.00
2009,07,01,00,15,9.00
2009,07,01,00,16,9.10
2009,07,01,00,17,9.10
2009,07,01,00,18,9.20
2009,07,01,00,19,9.20
2009,07,01,00,20,9.20
2009,07,01,00,21,9.20
2009,07,01,00,22,9.20
2009,07,01,00,23,9.20
2009,07,01,00,24,9.10
2009,07,01,00,25,9.10
2009,07,01,00,26,9.10
2009,07,01,00,27,9.10
2009,07,01,00,28,9.00
2009,07,01,00,29,9.00
2009,07,01,00,30,9.00
2009,07,01,00,31,8.90
2009,07,01,00,32,8.90
2009,07,01,00,33,8.90
2009,07,01,00,34,8.90
2009,07,01,00,35,8.90
2009,07,01,00,36,8.90
2009,07,01,00,37,8.90
2009,07,01,00,38,8.80
2009,07,01,00,39,8.80
2009,07,01,00,40,8.70
2009,07,01,00,41,8.70
2009,07,01,00,42,8.60
2009,07,01,00,43,8.60
2009,07,01,00,44,8.50
2009,07,01,00,45,8.50
2009,07,01,00,46,8.50
2009,07,01,00,47,8.50
2009,07,01,00,48,8.50
2009,07,01,00,49,8.50
2009,07,01,00,50,8.50
2009,07,01,00,51,8.60
2009,07,01,00,52,8.60
2009,07,01,00,53,8.70
2009,07,01,00,54,8.70
2009,07,01,00,55,8.70
2009,07,01,00,56,8.70
2009,07,01,00,57,8.70
2009,07,01,00,58,8.70
2009,07,01,00,59,8.70
2009,07,01,01,00,8.70
2009,07,01,01,01,8.70
2009,07,01,01,02,8.80
2009,07,01,01,03,8.80
2009,07,01,01,04,8.80
2009,07,01,01,05,8.80
2009,07,01,01,06,8.80
2009,07,01,01,07,8.80
2009,07,01,01,08,8.90
2009,07,01,01,09,8.90
2009,07,01,01,10,8.90
2009,07,01,01,11,8.90
2009,07,01,01,12,8.80
2009,07,01,01,13,8.90
2009,07,01,01,14,8.90
2009,07,01,01,15,8.90
2009,07,01,01,16,8.80
2009,07,01,01,17,8.80
2009,07,01,01,18,8.80
2009,07,01,01,19,8.80
2009,07,01,01,20,8.70
2009,07,01,01,21,8.70
2009,07,01,01,22,8.70
2009,07,01,01,23,8.70
2009,07,01,01,24,8.70
2009,07,01,01,25,8.70
2009,07,01,01,26,8.70
2009,07,01,01,27,8.70
2009,07,01,01,28,8.70
2009,07,01,01,29,8.70
2009,07,01,01,30,8.70
2009,07,01,01,31,8.70
2009,07,01,01,32,8.70
2009,07,01,01,33,8.70
2009,07,01,01,34,8.70
2009,07,01,01,35,8.70
2009,07,01,01,36,8.70
2009,07,01,01,37,8.70
2009,07,01,01,38,8.70
2009,07,01,01,39,8.70
2009,07,01,01,40,8.70
2009,07,01,01,41,8.70
2009,07,01,01,42,8.70
2009,07,01,01,43,8.70
2009,07,01,01,44,8.70
2009,07,01,01,45,8.70
2009,07,01,01,46,8.70
2009,07,01,01,47,8.70
2009,07,01,01,48,8.60
2009,07,01,01,49,8.60
2009,07,01,01,50,8.60
2009,07,01,01,51,8.60
2009,07,01,01,52,8.60
2009,07,01,01,53,8.60
2009,07,01,01,54,8.50
2009,07,01,01,55,8.50
2009,07,01,01,56,8.50
2009,07,01,01,57,8.50
2009,07,01,01,58,8.50
2009,07,01,01,59,8.40
2009,07,01,02,00,8.40
2009,07,01,02,01,8.40
2009,07,01,02,02,8.40
2009,07,01,02,03,8.40
2009,07,01,02,04,8.40
2009,07,01,02,05,8.40
2009,07,01,02,06,8.40
2009,07,01,02,07,8.30
2009,07,01,02,08,8.30
2009,07,01,02,09,8.30
2009,07,01,02,10,8.30
2009,07,01,02,11,8.30
2009,07,01,02,12,8.30
2009,07,01,02,13,8.30
2009,07,01,02,14,8.30
2009,07,01,02,15,8.30
2009,07,01,02,16,8.30
2009,07,01,02,17,8.20
2009,07,01,02,18,8.20
2009,07,01,02,19,8.20
2009,07,01,02,20,8.20
2009,07,01,02,21,8.20
2009,07,01,02,22,8.20
2009,07,01,02,23,8.20
2009,07,01,02,24,8.20
2009,07,01,02,25,8.20
2009,07,01,02,26,8.20
2009,07,01,02,27,8.20
2009,07,01,02,28,8.20
2009,07,01,02,29,8.20
2009,07,01,02,30,8.20
2009,07,01,02,31,8.30
2009,07,01,02,32,8.30
2009,07,01,02,33,8.30
2009,07,01,02,34,8.30
2009,07,01,02,35,8.40
2009,07,01,02,36,8.40
2009,07,01,02,37,8.40
2009,07,01,02,38,8.40
2009,07,01,02,39,8.40
2009,07,01,02,40,8.40
2009,07,01,02,41,8.30
2009,07,01,02,42,8.30
2009,07,01,02,43,8.30
2009,07,01,02,44,8.30
2009,07,01,02,45,8.30
2009,07,01,02,46,8.30
2009,07,01,02,47,8.30
2009,07,01,02,48,8.30
2009,07,01,02,49,8.20
2009,07,01,02,50,8.20
2009,07,01,02,51,8.20
2009,07,01,02,52,8.20
2009,07,01,02,53,8.20
2009,07,01,02,54,8.20
2009,07,01,02,55,8.20
2009,07,01,02,56,8.20
2009,07,01,02,57,8.20
2009,07,01,02,58,8.20
2009,07,01,02,59,8.20
2009,07,01,03,00,8.20
2009,07,01,03,01,8.20
2009,07,01,03,02,8.20
2009,07,01,03,03,8.20
2009,07,01,03,04,8.30
2009,07,01,03,05,8.30
2009,07,01,03,06,8.30
2009,07,01,03,07,8.30
2009,07,01,03,08,8.30
2009,07,01,03,09,8.30
2009,07,01,03,10,8.30
2009,07,01,03,11,8.30
2009,07,01,03,12,8.30
2009,07,01,03,13,8.20
2009,07,01,03,14,8.20
2009,07,01,03,15,8.20
2009,07,01,03,16,8.20
2009,07,01,03,17,8.10
2009,07,01,03,18,8.10
2009,07,01,03,19,8.10
2009,07,01,03,20,8.10
2009,07,01,03,21,8.10
2009,07,01,03,22,8.10
2009,07,01,03,23,8.10
2009,07,01,03,24,8.00
2009,07,01,03,25,8.00
2009,07,01,03,26,8.00
2009,07,01,03,27,8.00
2009,07,01,03,28,8.00
2009,07,01,03,29,8.00
2009,07,01,03,30,8.00
2009,07,01,03,31,8.00
2009,07,01,03,32,8.10
2009,07,01,03,33,8.20
2009,07,01,03,34,8.30
2009,07,01,03,35,8.50
2009,07,01,03,36,8.70
2009,07,01,03,37,8.80
2009,07,01,03,38,8.90
2009,07,01,03,39,8.90
2009,07,01,03,40,9.00
2009,07,01,03,41,9.00
2009,07,01,03,42,9.00
2009,07,01,03,43,9.00
2009,07,01,03,44,9.10
2009,07,01,03,45,9.10
2009,07,01,03,46,9.10
2009,07,01,03,47,9.10
2009,07,01,03,48,9.10
2009,07,01,03,49,9.10
2009,07,01,03,50,9.10
2009,07,01,03,51,9.10
2009,07,01,03,52,9.10
2009,07,01,03,53,9.10
2009,07,01,03,54,9.00
2009,07,01,03,55,9.00
2009,07,01,03,56,9.00
2009,07,01,03,57,9.00
2009,07,01,03,58,9.00
2009,07,01,03,59,9.00
2009,07,01,04,00,9.00
2009,07,01,04,01,9.00
2009,07,01,04,02,8.90
2009,07,01,04,03,8.90
2009,07,01,04,04,8.90
2009,07,01,04,05,8.90
2009,07,01,04,06,8.90
2009,07,01,04,07,8.80
2009,07,01,04,08,8.80
2009,07,01,04,09,8.80
2009,07,01,04,10,8.80
2009,07,01,04,11,8.80
2009,07,01,04,12,8.80
2009,07,01,04,13,8.80
2009,07,01,04,14,8.80
2009,07,01,04,15,8.80
2009,07,01,04,16,8.70
2009,07,01,04,17,8.70
2009,07,01,04,18,8.70
2009,07,01,04,19,8.70
2009,07,01,04,20,8.70
2009,07,01,04,21,8.60
2009,07,01,04,22,8.60
2009,07,01,04,23,8.60
2009,07,01,04,24,8.60
2009,07,01,04,25,8.50
2009,07,01,04,26,8.50
2009,07,01,04,27,8.50
2009,07,01,04,28,8.40
2009,07,01,04,29,8.40
2009,07,01,04,30,8.40
2009,07,01,04,31,8.30
2009,07,01,04,32,8.30
2009,07,01,04,33,8.30
2009,07,01,04,34,8.20
2009,07,01,04,35,8.20
2009,07,01,04,36,8.20
2009,07,01,04,37,8.20
2009,07,01,04,38,8.20
2009,07,01,04,39,8.20
2009,07,01,04,40,8.20
2009,07,01,04,41,8.10
2009,07,01,04,42,8.10
2009,07,01,04,43,8.10
2009,07,01,04,44,8.10
2009,07,01,04,45,8.10
2009,07,01,04,46,8.10
2009,07,01,04,47,8.10
2009,07,01,04,48,8.10
2009,07,01,04,49,8.10
2009,07,01,04,50,8.10
2009,07,01,04,51,8.10
2009,07,01,04,52,8.20
2009,07,01,04,53,8.20
2009,07,01,04,54,8.20
2009,07,01,04,55,8.20
2009,07,01,04,56,8.20
2009,07,01,04,57,8.20
2009,07,01,04,58,8.20
2009,07,01,04,59,8.30
2009,07,01,05,00,8.30
2009,07,01,05,01,8.30
2009,07,01,05,02,8.30
2009,07,01,05,03,8.30
2009,07,01,05,04,8.30
2009,07,01,05,05,8.30
2009,07,01,05,06,8.30
2009,07,01,05,07,8.30
2009,07,01,05,08,8.20
2009,07,01,05,09,8.20
2009,07,01,05,10,8.20
2009,07,01,05,11,8.20
2009,07,01,05,12,8.20
2009,07,01,05,13,8.20
2009,07,01,05,14,8.20
2009,07,01,05,15,8.20
2009,07,01,05,16,8.10
2009,07,01,05,17,8.00
2009,07,01,05,18,8.00
2009,07,01,05,19,7.90
2009,07,01,05,20,7.90
2009,07,01,05,21,7.90
2009,07,01,05,22,7.90
2009,07,01,05,23,7.90
2009,07,01,05,24,7.80
2009,07,01,05,25,7.80
2009,07,01,05,26,7.80
2009,07,01,05,27,7.80
2009,07,01,05,28,7.80
2009,07,01,05,29,7.80
2009,07,01,05,30,7.80
2009,07,01,05,31,7.80
2009,07,01,05,32,7.80
2009,07,01,05,33,7.80
2009,07,01,05,34,7.80
2009,07,01,05,35,7.80
2009,07,01,05,36,7.80
2009,07,01,05,37,7.80
2009,07,01,05,38,7.80
2009,07,01,05,39,7.80
2009,07,01,05,40,7.80
2009,07,01,05,41,7.80
2009,07,01,05,42,7.80
2009,07,01,05,43,7.80
2009,07,01,05,44,7.80
2009,07,01,05,45,7.80
2009,07,01,05,46,7.90
2009,07,01,05,47,7.90
2009,07,01,05,48,8.00
2009,07,01,05,49,8.00
2009,07,01,05,50,8.10
2009,07,01,05,51,8.20
2009,07,01,05,52,8.20
2009,07,01,05,53,8.30
2009,07,01,05,54,8.40
2009,07,01,05,55,8.40
2009,07,01,05,56,8.50
2009,07,01,05,57,8.50
2009,07,01,05,58,8.60
2009,07,01,05,59,8.70
2009,07,01,06,00,8.70
2009,07,01,06,01,8.70
2009,07,01,06,02,8.80
2009,07,01,06,03,8.90
2009,07,01,06,04,9.00
2009,07,01,06,05,9.10
2009,07,01,06,06,9.20
2009,07,01,06,07,9.30
2009,07,01,06,08,9.40
2009,07,01,06,09,9.50
2009,07,01,06,10,9.60
2009,07,01,06,11,9.70
2009,07,01,06,12,9.70
2009,07,01,06,13,9.80
2009,07,01,06,14,9.90
2009,07,01,06,15,9.90
2009,07,01,06,16,10.00
2009,07,01,06,17,10.10
2009,07,01,06,18,10.10
2009,07,01,06,19,10.20
2009,07,01,06,20,10.30
2009,07,01,06,21,10.30
2009,07,01,06,22,10.30
2009,07,01,06,23,10.30
2009,07,01,06,24,10.30
2009,07,01,06,25,10.30
2009,07,01,06,26,10.30
2009,07,01,06,27,10.30
2009,07,01,06,28,10.40
2009,07,01,06,29,10.40
2009,07,01,06,30,10.40
2009,07,01,06,31,10.40
2009,07,01,06,32,10.40
2009,07,01,06,33,10.40
2009,07,01,06,34,10.40
2009,07,01,06,35,10.40
2009,07,01,06,36,10.40
2009,07,01,06,37,10.60
2009,07,01,06,38,10.60
2009,07,01,06,39,10.60
2009,07,01,06,40,10.60
2009,07,01,06,41,10.70
2009,07,01,06,42,10.70
2009,07,01,06,43,10.80
2009,07,01,06,44,10.90
2009,07,01,06,45,10.90
2009,07,01,06,46,11.00
2009,07,01,06,47,11.00
2009,07,01,06,48,10.90
2009,07,01,06,49,10.90
2009,07,01,06,50,10.90
2009,07,01,06,51,11.10
2009,07,01,06,52,11.10
2009,07,01,06,53,11.10
2009,07,01,06,54,11.20
2009,07,01,06,55,11.30
2009,07,01,06,56,11.40
2009,07,01,06,57,11.50
2009,07,01,06,58,11.60
2009,07,01,06,59,11.60
2009,07,01,07,00,11.70
2009,07,01,07,01,11.70
2009,07,01,07,02,11.70
2009,07,01,07,03,11.70
2009,07,01,07,04,11.80
2009,07,01,07,05,11.80
2009,07,01,07,06,11.90
2009,07,01,07,07,12.00
2009,07,01,07,08,12.00
2009,07,01,07,09,12.10
2009,07,01,07,10,12.20
2009,07,01,07,11,12.30
2009,07,01,07,12,12.40
2009,07,01,07,13,12.50
2009,07,01,07,14,12.70
2009,07,01,07,15,12.80
2009,07,01,07,16,12.90
2009,07,01,07,17,13.00
2009,07,01,07,18,13.00
2009,07,01,07,19,13.10
2009,07,01,07,20,13.10
2009,07,01,07,21,13.20
2009,07,01,07,22,13.30
2009,07,01,07,23,13.30
2009,07,01,07,24,13.40
2009,07,01,07,25,13.50
2009,07,01,07,26,13.60
2009,07,01,07,27,13.70
2009,07,01,07,28,13.80
2009,07,01,07,29,13.90
2009,07,01,07,30,14.00
2009,07,01,07,31,14.10
2009,07,01,07,32,14.20
2009,07,01,07,33,14.40
2009,07,01,07,34,14.50
2009,07,01,07,35,14.60
2009,07,01,07,36,14.70
2009,07,01,07,37,14.80
2009,07,01,07,38,14.80
2009,07,01,07,39,14.90
2009,07,01,07,40,15.00
2009,07,01,07,41,15.10
2009,07,01,07,42,15.10
2009,07,01,07,43,15.10
2009,07,01,07,44,15.20
2009,07,01,07,45,15.20
2009,07,01,07,46,15.30
2009,07,01,07,47,15.30
2009,07,01,07,48,15.30
2009,07,01,07,49,15.40
2009,07,01,07,50,15.40
2009,07,01,07,51,15.50
2009,07,01,07,52,15.50
2009,07,01,07,53,15.50
2009,07,01,07,54,15.50
2009,07,01,07,55,15.50
2009,07,01,07,56,15.60
2009,07,01,07,57,15.70
2009,07,01,07,58,15.80
2009,07,01,07,59,15.80
2009,07,01,08,00,15.80
2009,07,01,08,01,15.90
2009,07,01,08,02,15.90
2009,07,01,08,03,15.90
2009,07,01,08,04,15.90
2009,07,01,08,05,15.80
2009,07,01,08,06,15.80
2009,07,01,08,07,15.80
2009,07,01,08,08,15.80
2009,07,01,08,09,15.80
2009,07,01,08,10,15.80
2009,07,01,08,11,15.80
2009,07,01,08,12,15.80
2009,07,01,08,13,15.80
2009,07,01,08,14,15.80
2009,07,01,08,15,15.80
2009,07,01,08,16,15.80
2009,07,01,08,17,15.80
2009,07,01,08,18,15.90
2009,07,01,08,19,16.00
2009,07,01,08,20,16.10
2009,07,01,08,21,16.10
2009,07,01,08,22,16.20
2009,07,01,08,23,16.20
2009,07,01,08,24,16.30
2009,07,01,08,25,16.40
2009,07,01,08,26,16.40
2009,07,01,08,27,16.40
2009,07,01,08,28,16.40
2009,07,01,08,29,16.50
2009,07,01,08,30,16.60
2009,07,01,08,31,16.60
2009,07,01,08,32,16.60
2009,07,01,08,33,16.50
2009,07,01,08,34,16.30
2009,07,01,08,35,16.10
2009,07,01,08,36,16.00
2009,07,01,08,37,15.90
2009,07,01,08,38,15.80
2009,07,01,08,39,15.80
2009,07,01,08,40,15.80
2009,07,01,08,41,15.80
2009,07,01,08,42,15.80
2009,07,01,08,43,15.80
2009,07,01,08,44,15.70
2009,07,01,08,45,15.60
2009,07,01,08,46,15.40
2009,07,01,08,47,15.30
2009,07,01,08,48,15.10
2009,07,01,08,49,15.10
2009,07,01,08,50,15.00
2009,07,01,08,51,15.10
2009,07,01,08,52,15.10
2009,07,01,08,53,15.20
2009,07,01,08,54,15.20
2009,07,01,08,55,15.30
2009,07,01,08,56,15.40
2009,07,01,08,57,15.50
2009,07,01,08,58,15.50
2009,07,01,08,59,15.50
2009,07,01,09,00,15.50
2009,07,01,09,01,15.50
2009,07,01,09,02,15.50
2009,07,01,09,03,15.50
2009,07,01,09,04,15.60
2009,07,01,09,05,15.60
2009,07,01,09,06,15.70
2009,07,01,09,07,15.80
2009,07,01,09,08,16.00
2009,07,01,09,09,16.20
2009,07,01,09,10,16.60
2009,07,01,09,11,16.70
2009,07,01,09,12,16.70
2009,07,01,09,13,16.50
2009,07,01,09,14,16.30
2009,07,01,09,15,16.20
2009,07,01,09,16,16.10
2009,07,01,09,17,16.00
2009,07,01,09,18,15.90
2009,07,01,09,19,16.00
2009,07,01,09,20,16.10
2009,07,01,09,21,16.10
2009,07,01,09,22,16.20
2009,07,01,09,23,16.40
2009,07,01,09,24,16.40
2009,07,01,09,25,16.50
2009,07,01,09,26,16.60
2009,07,01,09,27,16.50
2009,07,01,09,28,16.40
2009,07,01,09,29,16.30
2009,07,01,09,30,16.20
2009,07,01,09,31,16.10
2009,07,01,09,32,16.10
2009,07,01,09,33,16.10
2009,07,01,09,34,16.10
2009,07,01,09,35,16.10
2009,07,01,09,36,16.20
2009,07,01,09,37,16.30
2009,07,01,09,38,16.30
2009,07,01,09,39,16.40
2009,07,01,09,40,16.40
2009,07,01,09,41,16.50
2009,07,01,09,42,16.60
2009,07,01,09,43,16.50
2009,07,01,09,44,16.40
2009,07,01,09,45,16.40
2009,07,01,09,46,16.40
2009,07,01,09,47,16.50
2009,07,01,09,48,16.60
2009,07,01,09,49,16.70
2009,07,01,09,50,16.80
2009,07,01,09,51,16.90
2009,07,01,09,52,16.90
2009,07,01,09,53,16.90
2009,07,01,09,54,16.90
2009,07,01,09,55,17.00
2009,07,01,09,56,17.00
2009,07,01,09,57,17.00
2009,07,01,09,58,17.00
2009,07,01,09,59,17.00
2009,07,01,10,00,17.00
2009,07,01,10,01,16.90
2009,07,01,10,02,16.90
2009,07,01,10,03,17.00
2009,07,01,10,04,17.10
2009,07,01,10,05,17.20
2009,07,01,10,06,17.20
2009,07,01,10,07,17.30
2009,07,01,10,08,17.30
2009,07,01,10,09,17.30
2009,07,01,10,10,17.40
2009,07,01,10,11,17.50
2009,07,01,10,12,17.50
2009,07,01,10,13,17.50
2009,07,01,10,14,17.50
2009,07,01,10,15,17.50
2009,07,01,10,16,17.60
2009,07,01,10,17,17.70
2009,07,01,10,18,17.80
2009,07,01,10,19,17.80
2009,07,01,10,20,17.80
2009,07,01,10,21,17.90
2009,07,01,10,22,17.80
2009,07,01,10,23,17.80
2009,07,01,10,24,17.80
2009,07,01,10,25,17.90
2009,07,01,10,26,17.80
2009,07,01,10,27,17.80
2009,07,01,10,28,17.80
2009,07,01,10,29,17.90
2009,07,01,10,30,17.90
2009,07,01,10,31,18.10
2009,07,01,10,32,18.30
2009,07,01,10,33,18.40
2009,07,01,10,34,18.30
2009,07,01,10,35,18.30
2009,07,01,10,36,18.30
2009,07,01,10,37,18.30
2009,07,01,10,38,18.40
2009,07,01,10,39,18.30
2009,07,01,10,40,18.30
2009,07,01,10,41,18.40
2009,07,01,10,42,18.40
2009,07,01,10,43,18.50
2009,07,01,10,44,18.60
2009,07,01,10,45,18.60
2009,07,01,10,46,18.60
2009,07,01,10,47,18.70
2009,07,01,10,48,18.70
2009,07,01,10,49,18.80
2009,07,01,10,50,18.90
2009,07,01,10,51,18.90
2009,07,01,10,52,18.90
2009,07,01,10,53,18.90
2009,07,01,10,54,18.90
2009,07,01,10,55,18.90
2009,07,01,10,56,18.90
2009,07,01,10,57,18.80
2009,07,01,10,58,18.90
2009,07,01,10,59,18.90
2009,07,01,11,00,18.90
2009,07,01,11,01,19.00
2009,07,01,11,02,19.00
2009,07,01,11,03,18.90
2009,07,01,11,04,18.90
2009,07,01,11,05,18.90
2009,07,01,11,06,18.80
2009,07,01,11,07,18.80
2009,07,01,11,08,18.70
2009,07,01,11,09,18.70
2009,07,01,11,10,18.70
2009,07,01,11,11,18.80
2009,07,01,11,12,18.80
2009,07,01,11,13,18.90
2009,07,01,11,14,18.90
2009,07,01,11,15,18.80
2009,07,01,11,16,18.80
2009,07,01,11,17,18.80
2009,07,01,11,18,18.80
2009,07,01,11,19,18.90
2009,07,01,11,20,19.00
2009,07,01,11,21,19.20
2009,07,01,11,22,19.30
2009,07,01,11,23,19.30
2009,07,01,11,24,19.20
2009,07,01,11,25,19.10
2009,07,01,11,26,19.10
2009,07,01,11,27,19.10
2009,07,01,11,28,19.10
2009,07,01,11,29,19.10
2009,07,01,11,30,19.10
2009,07,01,11,31,19.10
2009,07,01,11,32,19.30
2009,07,01,11,33,19.30
2009,07,01,11,34,19.40
2009,07,01,11,35,19.50
2009,07,01,11,36,19.60
2009,07,01,11,37,19.60
2009,07,01,11,38,19.60
2009,07,01,11,39,19.60
2009,07,01,11,40,19.50
2009,07,01,11,41,19.50
2009,07,01,11,42,19.40
2009,07,01,11,43,19.30
2009,07,01,11,44,19.40
2009,07,01,11,45,19.30
2009,07,01,11,46,19.40
2009,07,01,11,47,19.40
2009,07,01,11,48,19.50
2009,07,01,11,49,19.50
2009,07,01,11,50,19.40
2009,07,01,11,51,19.40
2009,07,01,11,52,19.40
2009,07,01,11,53,19.30
2009,07,01,11,54,19.30
2009,07,01,11,55,19.30
2009,07,01,11,56,19.30
2009,07,01,11,57,19.30
2009,07,01,11,58,19.30
2009,07,01,11,59,19.40
2009,07,01,12,00,19.50
2009,07,01,12,01,19.40
2009,07,01,12,02,19.40
2009,07,01,12,03,19.60
2009,07,01,12,04,19.60
2009,07,01,12,05,19.70
2009,07,01,12,06,19.80
2009,07,01,12,07,19.80
2009,07,01,12,08,19.80
2009,07,01,12,09,19.90
2009,07,01,12,10,19.90
2009,07,01,12,11,19.70
2009,07,01,12,12,19.70
2009,07,01,12,13,19.80
2009,07,01,12,14,19.80
2009,07,01,12,15,19.90
2009,07,01,12,16,19.90
2009,07,01,12,17,19.90
2009,07,01,12,18,19.90
2009,07,01,12,19,19.90
2009,07,01,12,20,19.90
2009,07,01,12,21,20.10
2009,07,01,12,22,20.20
2009,07,01,12,23,20.20
2009,07,01,12,24,20.20
2009,07,01,12,25,20.20
2009,07,01,12,26,20.20
2009,07,01,12,27,20.20
2009,07,01,12,28,20.20
2009,07,01,12,29,20.20
2009,07,01,12,30,20.30
2009,07,01,12,31,20.40
2009,07,01,12,32,20.50
2009,07,01,12,33,20.40
2009,07,01,12,34,20.30
2009,07,01,12,35,20.20
2009,07,01,12,36,20.20
2009,07,01,12,37,20.10
2009,07,01,12,38,20.00
2009,07,01,12,39,19.90
2009,07,01,12,40,20.00
2009,07,01,12,41,20.20
2009,07,01,12,42,20.10
2009,07,01,12,43,20.10
2009,07,01,12,44,20.10
2009,07,01,12,45,20.00
2009,07,01,12,46,19.80
2009,07,01,12,47,19.80
2009,07,01,12,48,19.80
2009,07,01,12,49,19.90
2009,07,01,12,50,19.80
2009,07,01,12,51,19.80
2009,07,01,12,52,19.70
2009,07,01,12,53,19.70
2009,07,01,12,54,19.80
2009,07,01,12,55,19.90
2009,07,01,12,56,20.00
2009,07,01,12,57,20.10
2009,07,01,12,58,20.10
2009,07,01,12,59,20.00
2009,07,01,13,00,19.90
2009,07,01,13,01,19.80
2009,07,01,13,02,19.70
2009,07,01,13,03,19.60
2009,07,01,13,04,19.60
2009,07,01,13,05,19.50
2009,07,01,13,06,19.60
2009,07,01,13,07,19.60
2009,07,01,13,08,19.50
2009,07,01,13,09,19.40
2009,07,01,13,10,19.40
2009,07,01,13,11,19.50
2009,07,01,13,12,19.40
2009,07,01,13,13,19.30
2009,07,01,13,14,19.10
2009,07,01,13,15,19.10
2009,07,01,13,16,19.20
2009,07,01,13,17,19.20
2009,07,01,13,18,19.30
2009,07,01,13,19,19.30
2009,07,01,13,20,19.40
2009,07,01,13,21,19.40
2009,07,01,13,22,19.40
2009,07,01,13,23,19.30
2009,07,01,13,24,19.10
2009,07,01,13,25,19.10
2009,07,01,13,26,19.10
2009,07,01,13,27,19.00
2009,07,01,13,28,18.90
2009,07,01,13,29,18.70
2009,07,01,13,30,18.50
2009,07,01,13,31,18.40
2009,07,01,13,32,18.30
2009,07,01,13,33,18.20
2009,07,01,13,34,18.10
2009,07,01,13,35,18.10
2009,07,01,13,36,18.10
2009,07,01,13,37,18.20
2009,07,01,13,38,18.20
2009,07,01,13,39,18.20
2009,07,01,13,40,18.20
2009,07,01,13,41,18.20
2009,07,01,13,42,18.10
2009,07,01,13,43,17.90
2009,07,01,13,44,17.80
2009,07,01,13,45,17.80
2009,07,01,13,46,17.80
2009,07,01,13,47,17.80
2009,07,01,13,48,17.70
2009,07,01,13,49,17.60
2009,07,01,13,50,17.50
2009,07,01,13,51,17.50
2009,07,01,13,52,17.50
2009,07,01,13,53,17.50
2009,07,01,13,54,17.40
2009,07,01,13,55,17.30
2009,07,01,13,56,17.30
2009,07,01,13,57,17.40
2009,07,01,13,58,17.60
2009,07,01,13,59,17.60
2009,07,01,14,00,17.60
2009,07,01,14,01,17.60
2009,07,01,14,02,17.60
2009,07,01,14,03,17.60
2009,07,01,14,04,17.70
2009,07,01,14,05,17.70
2009,07,01,14,06,17.70
2009,07,01,14,07,17.60
2009,07,01,14,08,17.50
2009,07,01,14,09,17.50
2009,07,01,14,10,17.50
2009,07,01,14,11,17.50
2009,07,01,14,12,17.50
2009,07,01,14,13,17.60
2009,07,01,14,14,17.70
2009,07,01,14,15,17.70
2009,07,01,14,16,17.80
2009,07,01,14,17,17.80
2009,07,01,14,18,17.90
2009,07,01,14,19,17.80
2009,07,01,14,20,17.80
2009,07,01,14,21,17.70
2009,07,01,14,22,17.70
2009,07,01,14,23,17.70
2009,07,01,14,24,17.80
2009,07,01,14,25,17.70
2009,07,01,14,26,17.70
2009,07,01,14,27,17.70
2009,07,01,14,28,17.60
2009,07,01,14,29,17.50
2009,07,01,14,30,17.50
2009,07,01,14,31,17.40
2009,07,01,14,32,17.50
2009,07,01,14,33,17.50
2009,07,01,14,34,17.50
2009,07,01,14,35,17.50
2009,07,01,14,36,17.60
2009,07,01,14,37,17.60
2009,07,01,14,38,17.60
2009,07,01,14,39,17.70
2009,07,01,14,40,17.70
2009,07,01,14,41,17.70
2009,07,01,14,42,17.80
2009,07,01,14,43,17.90
2009,07,01,14,44,18.10
2009,07,01,14,45,18.20
2009,07,01,14,46,18.20
2009,07,01,14,47,18.20
2009,07,01,14,48,18.40
2009,07,01,14,49,18.40
2009,07,01,14,50,18.40
2009,07,01,14,51,18.30
2009,07,01,14,52,18.40
2009,07,01,14,53,18.50
2009,07,01,14,54,18.70
2009,07,01,14,55,18.80
2009,07,01,14,56,18.90
2009,07,01,14,57,18.80
2009,07,01,14,58,18.90
2009,07,01,14,59,18.90
2009,07,01,15,00,18.90
2009,07,01,15,01,18.90
2009,07,01,15,02,18.90
2009,07,01,15,03,18.90
2009,07,01,15,04,18.90
2009,07,01,15,05,19.00
2009,07,01,15,06,19.10
2009,07,01,15,07,19.30
2009,07,01,15,08,19.40
2009,07,01,15,09,19.50
2009,07,01,15,10,19.50
2009,07,01,15,11,19.50
2009,07,01,15,12,19.50
2009,07,01,15,13,19.60
2009,07,01,15,14,19.60
2009,07,01,15,15,19.60
2009,07,01,15,16,19.60
2009,07,01,15,17,19.60
2009,07,01,15,18,19.60
2009,07,01,15,19,19.70
2009,07,01,15,20,19.70
2009,07,01,15,21,19.80
2009,07,01,15,22,19.90
2009,07,01,15,23,19.90
2009,07,01,15,24,19.90
2009,07,01,15,25,19.90
2009,07,01,15,26,19.90
2009,07,01,15,27,19.80
2009,07,01,15,28,19.70
2009,07,01,15,29,19.70
2009,07,01,15,30,19.80
2009,07,01,15,31,19.80
2009,07,01,15,32,19.70
2009,07,01,15,33,19.40
2009,07,01,15,34,19.30
2009,07,01,15,35,19.10
2009,07,01,15,36,19.00
2009,07,01,15,37,19.10
2009,07,01,15,38,19.10
2009,07,01,15,39,19.10
2009,07,01,15,40,19.20
2009,07,01,15,41,19.30
2009,07,01,15,42,19.40
2009,07,01,15,43,19.50
2009,07,01,15,44,19.60
2009,07,01,15,45,19.70
2009,07,01,15,46,19.80
2009,07,01,15,47,20.00
2009,07,01,15,48,20.10
2009,07,01,15,49,20.10
2009,07,01,15,50,20.20
2009,07,01,15,51,20.30
2009,07,01,15,52,20.40
2009,07,01,15,53,20.50
2009,07,01,15,54,20.50
2009,07,01,15,55,20.50
2009,07,01,15,56,20.40
2009,07,01,15,57,20.30
2009,07,01,15,58,20.20
2009,07,01,15,59,20.20
2009,07,01,16,00,20.20
2009,07,01,16,01,20.20
2009,07,01,16,02,20.20
2009,07,01,16,03,20.20
2009,07,01,16,04,20.20
2009,07,01,16,05,20.20
2009,07,01,16,06,20.30
2009,07,01,16,07,20.30
2009,07,01,16,08,20.30
2009,07,01,16,09,20.30
2009,07,01,16,10,20.30
2009,07,01,16,11,20.20
2009,07,01,16,12,20.20
2009,07,01,16,13,20.40
2009,07,01,16,14,20.50
2009,07,01,16,15,20.60
2009,07,01,16,16,20.60
2009,07,01,16,17,20.60
2009,07,01,16,18,20.70
2009,07,01,16,19,20.80
2009,07,01,16,20,20.80
2009,07,01,16,21,20.90
2009,07,01,16,22,20.90
2009,07,01,16,23,20.80
2009,07,01,16,24,20.80
2009,07,01,16,25,20.80
2009,07,01,16,26,20.80
2009,07,01,16,27,20.90
2009,07,01,16,28,20.90
2009,07,01,16,29,20.80
2009,07,01,16,30,20.70
2009,07,01,16,31,20.80
2009,07,01,16,32,20.80
2009,07,01,16,33,20.90
2009,07,01,16,34,21.00
2009,07,01,16,35,21.10
2009,07,01,16,36,21.30
2009,07,01,16,37,21.30
2009,07,01,16,38,21.30
2009,07,01,16,39,21.30
2009,07,01,16,40,21.30
2009,07,01,16,41,21.20
2009,07,01,16,42,21.20
2009,07,01,16,43,21.10
2009,07,01,16,44,21.10
2009,07,01,16,45,21.00
2009,07,01,16,46,20.90
2009,07,01,16,47,20.80
2009,07,01,16,48,20.70
2009,07,01,16,49,20.70
2009,07,01,16,50,20.70
2009,07,01,16,51,20.80
2009,07,01,16,52,20.80
2009,07,01,16,53,20.90
2009,07,01,16,54,20.90
2009,07,01,16,55,20.90
2009,07,01,16,56,21.00
2009,07,01,16,57,21.00
2009,07,01,16,58,21.00
2009,07,01,16,59,21.00
2009,07,01,17,00,21.00
2009,07,01,17,01,20.90
2009,07,01,17,02,20.90
2009,07,01,17,03,21.00
2009,07,01,17,04,21.00
2009,07,01,17,05,21.00
2009,07,01,17,06,20.90
2009,07,01,17,07,20.80
2009,07,01,17,08,21.00
2009,07,01,17,09,21.00
2009,07,01,17,10,20.90
2009,07,01,17,11,20.80
2009,07,01,17,12,20.80
2009,07,01,17,13,20.80
2009,07,01,17,14,20.70
2009,07,01,17,15,20.60
2009,07,01,17,16,20.60
2009,07,01,17,17,20.70
2009,07,01,17,18,20.80
2009,07,01,17,19,20.90
2009,07,01,17,20,20.90
2009,07,01,17,21,21.00
2009,07,01,17,22,21.10
2009,07,01,17,23,21.10
2009,07,01,17,24,21.10
2009,07,01,17,25,21.00
2009,07,01,17,26,21.00
2009,07,01,17,27,20.90
2009,07,01,17,28,20.90
2009,07,01,17,29,20.80
2009,07,01,17,30,20.80
2009,07,01,17,31,20.70
2009,07,01,17,32,20.70
2009,07,01,17,33,20.70
2009,07,01,17,34,20.80
2009,07,01,17,35,20.90